Lexington Weather

Lexington, Massachusetts, USA

26°F
1/21/2021 10:40am 
  • Lexington Conditions: Clear
  • Temperature: 26.1°F / -3.3°CWarmer 1.8°F than last hour.
  • Dew Point: 14.5°FIncreased 1.0°Fsince last hour.
  • Relative Humidity: 61%Decreased 2.0% since last hour.
  • Wind: Wind from S S 1 mph, 10-min avg: Calm, gust: 4 mph
  • Barometer: 29.76 in Steady
  • Visibility: 10 miles
  • Snow Today: 0.0 in
  •   

Regional Weather Roundup
for Boston / Norton, MA

        
000
ASUS41 KBOX 171704
RWRBOX

REGIONAL WEATHER ROUNDUP
NATIONAL WEATHER SERVICE BOSTON/NORTON MA
1200 PM EST SUN JAN 17 2021

NOTE:  "FAIR" INDICATES FEW OR NO CLOUDS BELOW 12,000 FEET WITH NO 
SIGNIFICANT WEATHER AND/OR OBSTRUCTIONS TO VISIBILITY.

MAZALL-171800-
EASTERN MASSACHUSETTS
  
CITY           SKY/WX    TMP DP  RH WIND       PRES   REMARKS
BOSTON         MOSUNNY   41  23  48 W21G29    29.42S WCI  32          
BEVERLY        PTSUNNY   43  24  47 W21G32    29.38S                  
LAWRENCE       PTSUNNY   40  25  55 W20G32    29.39S WCI  30          
BEDFORD        PTSUNNY   42  24  49 W20G29    29.40F                  
BLUE HILL        N/A     40  22  48 W24G38    29.39F WCI  29          
NORWOOD        MOSUNNY   45  23  42 W23G33    29.43S                  
MARSHFIELD     MOSUNNY   45  25  45 SW10G21   29.43R                  
PLYMOUTH       SUNNY     43  24  47 SW18G26   29.44S                  
TAUNTON        MOSUNNY   45  24  43 SW15G25   29.46R                  
NEW BEDFORD    SUNNY     44  24  45 W21G30    29.47S                  
$$

MAZALL-171800-
CAPE COD AND THE ISLANDS
  
CITY           SKY/WX    TMP DP  RH WIND       PRES   REMARKS
FALMOUTH       SUNNY     43  25  49 SW28G37   29.47S                  
HYANNIS        SUNNY     44  26  49 W24G35    29.44S                  
CHATHAM        SUNNY     42  28  57 SW18G32   29.47F                  
NANTUCKET      MOSUNNY   43  28  55 W33G43    29.50F WCI  32          
MARTHAS VNYRD  MOSUNNY   43  28  55 W20G40    29.49F                  
$$
 
MAZALL-171800-
CENTRAL AND WESTERN MASSACHUSETTS
  
CITY           SKY/WX    TMP DP  RH WIND       PRES   REMARKS
WORCESTER      MOSUNNY   38  22  52 W30G41    29.39R WCI  26          
FITCHBURG      CLOUDY    40  24  53 W17G23    29.41S WCI  31          
ORANGE         CLOUDY    38  24  57 SW17G32   29.43R WCI  28          
SPRINGFIELD    PTSUNNY   40  23  50 W13       29.46R                  
WESTFIELD      CLOUDY    40  24  53 SW15G28   29.47R WCI  32          
NORTH ADAMS    LGT SNOW  36  26  67 W14G29    29.43F WCI  27          
PITTSFIELD     CLOUDY    34  24  67 W21G30    29.43S WCI  22          
$$
 
RIZALL-171800-
RHODE ISLAND
  
CITY           SKY/WX    TMP DP  RH WIND       PRES   REMARKS
PROVIDENCE     MOSUNNY   43  24  47 W18G30    29.48F                  
NEWPORT        SUNNY     42  25  50 VRB7G21   29.49F                  
BLOCK ISLAND   PTSUNNY   41  25  53 W28G37    29.54F WCI  30          
SMITHFIELD     PTSUNNY   42  24  49 W15G24    29.45F                  
WESTERLY       MOSUNNY   40  26  57 SW22G33   29.51F WCI  30          
$$
 
CTZALL-171800-
CONNECTICUT
  
CITY           SKY/WX    TMP DP  RH WIND       PRES   REMARKS
BRADLEY INTL   PTSUNNY   41  24  51 SW20G30   29.49F WCI  32          
HARTFORD       PTSUNNY   43  23  45 SW13G24   29.52F                  
BRIDGEPORT     NOT AVBL                                               
DANBURY        CLOUDY    40  22  48 W13G31    29.56F                  
GROTON         MOSUNNY   43  25  49 W13G26    29.53F                  
NEW HAVEN      SUNNY     44  26  49 W14G23    29.55F                  
CHESTER        FAIR      41  21  45 W9G23     29.52F                  
MERIDEN        CLOUDY    41  22  46 W14G20    29.54F                  
WILLIMANTIC    SUNNY     42  23  46 W13G25    29.49F                  
OXFORD         PTSUNNY   38  23  55 W15G22    29.52F WCI  29          
$$

MEZ002-015-021-024-NHZ003-005-008-011-012-014-VTZ005-008-171800-
NORTHERN NEW ENGLAND
  
CITY           SKY/WX    TMP DP  RH WIND       PRES   REMARKS
PORTLAND ME    PTSUNNY   39  26  59 W20G28    29.29R WCI  29          
BANGOR ME      CLOUDY    86  30  13 SW15G24   29.14                   
CONCORD NH     CLOUDY    38  24  57 W17G24    29.34S WCI  28          
MANCHESTER NH  CLOUDY    39  24  55 W12       29.36S WCI  32          
NASHUA NH      CLOUDY    39  25  57 W8G18     29.39F                  
PORTSMOUTH NH  PTSUNNY   41  21  45 W18G32    29.32S WCI  32          
JAFFREY NH     CLOUDY    35  24  64 SW15      29.36S WCI  25          
KEENE NH       CLOUDY    37  26  64 SW9       29.40S WCI  30          
BURLINGTON VT  CLOUDY    37  26  64 W8G18     29.33R WCI  31          
MT. WASHINGTON SNOWSHWR  10  10 100 W83G91      N/A  VSB 0   WCI -21  
$$

NYZ052-076-171800-
EASTERN NEW YORK
  
CITY           SKY/WX    TMP DP  RH WIND       PRES   REMARKS
ALBANY         FLURRIES  35  26  69 SW10G21   29.47F WCI  27          
NEW YORK CITY  PTSUNNY   44  22  41 W16G37    29.61F                  
$$
 
ANZALL-171800-
MARINE OBSERVATIONS
  
STATION/POSITION TIME  TEMP    WIND        PRES    VSBY  WAVE
                       AIR SEA DIR/SP/G                  HT/PER
                 (UTC) (F)     (DEG/KT/KT) (MB)    (MI)  (FT/S)
BOSTON BUOY      1640   41 43  260/ 23/ 29  996.1F
BUZZARDS BAY     1600          250/ 37/ 40  999.4F
NANTUCKET SOUND  1640      40  240/ 27/ 35   N/A
MASS BAY-STELLWA 1604   40     270/ 25/ 31  994.0F  1 7/8  5/ 5
ISLE OF SHOALS   1600   39     250/ 32/ 36  992.9R
S OF BLOCK IS    1626      48                N/A          12/ 8
$$

......................KEY.........................
  SKY/WX - SKY CONDITION/PRESENT WEATHER
  TMP    - TEMPERATURE IN FAHRENHEIT
  DWPT   - DEWPOINT IN FAHRENHEIT
  RH     - RELATIVE HUMIDITY IN PERCENT
  WIND   - DIRECTION AND SPEED IN MPH
  PRES   - MEAN SEA LEVEL PRESSURE IN INCHES OF HG
  WCI    - WIND CHILL INDEX
  VSB    - VISIBILITY IN MILES
  HX     - HEAT INDEX
  TC     - TEMPERATURE IN CELSIUS
  VRB    - VARIABLE WIND DIRECTION
  N/A    - NOT AVAILABLE
  
      

Other recent Regional Weather Roundups

Thu Jan 21, 9:04am

Thu Jan 21, 7:04am

Thu Jan 21, 6:04am

Thu Jan 21, 5:04am

Thu Jan 21, 4:04am

Thu Jan 21, 3:04am

Thu Jan 21, 2:04am

Thu Jan 21, 1:04am

Thu Jan 21, 12:04am

Wed Jan 20, 11:04pm

Wed Jan 20, 10:05pm

Wed Jan 20, 9:04pm

Wed Jan 20, 8:04pm

Wed Jan 20, 7:04pm

Wed Jan 20, 6:05pm

Wed Jan 20, 5:05pm

Wed Jan 20, 1:04pm

Wed Jan 20, 12:04pm

Wed Jan 20, 11:04am

Wed Jan 20, 10:04am

Wed Jan 20, 9:05am

Wed Jan 20, 8:04am

Wed Jan 20, 7:04am

Wed Jan 20, 6:04am

Wed Jan 20, 5:04am

Wed Jan 20, 4:04am

Wed Jan 20, 3:05am

Wed Jan 20, 2:04am

Wed Jan 20, 1:04am

Wed Jan 20, 12:04am

Tue Jan 19, 11:04pm

Tue Jan 19, 10:04pm

Tue Jan 19, 9:04pm

Tue Jan 19, 8:04pm

Tue Jan 19, 7:04pm

Tue Jan 19, 6:05pm

Tue Jan 19, 5:04pm

Tue Jan 19, 4:05pm

Tue Jan 19, 3:04pm

Tue Jan 19, 2:04pm

Tue Jan 19, 1:04pm

Tue Jan 19, 12:05pm

Tue Jan 19, 11:04am

Tue Jan 19, 10:05am

Tue Jan 19, 9:04am

Tue Jan 19, 8:04am

Tue Jan 19, 7:04am

Tue Jan 19, 6:04am

Tue Jan 19, 5:04am

Tue Jan 19, 4:04am

Tue Jan 19, 3:04am

Tue Jan 19, 2:04am

Tue Jan 19, 1:04am

Tue Jan 19, 12:04am

Mon Jan 18, 11:04pm

Mon Jan 18, 10:04pm

Mon Jan 18, 9:04pm

Mon Jan 18, 8:05pm

Mon Jan 18, 7:04pm

Mon Jan 18, 6:05pm

Mon Jan 18, 5:04pm

Mon Jan 18, 4:04pm

Mon Jan 18, 3:04pm

Mon Jan 18, 2:04pm

Mon Jan 18, 1:04pm

Mon Jan 18, 12:04pm

Mon Jan 18, 11:04am

Mon Jan 18, 10:04am

Mon Jan 18, 9:04am

Mon Jan 18, 8:04am

Mon Jan 18, 7:04am

Mon Jan 18, 6:04am

Mon Jan 18, 5:04am

Mon Jan 18, 4:04am

Mon Jan 18, 3:04am

Mon Jan 18, 2:04am

Mon Jan 18, 1:04am

Mon Jan 18, 12:04am

Sun Jan 17, 11:04pm

Sun Jan 17, 10:04pm

Sun Jan 17, 9:04pm

Sun Jan 17, 8:04pm

Sun Jan 17, 7:04pm

Sun Jan 17, 6:04pm

Sun Jan 17, 5:04pm

Sun Jan 17, 4:05pm

Sun Jan 17, 3:04pm

Sun Jan 17, 2:04pm

Sun Jan 17, 1:04pm

Sun Jan 17, 11:04am

Sun Jan 17, 10:04am

Sun Jan 17, 9:04am

Sun Jan 17, 8:04am

Sun Jan 17, 7:04am

Sun Jan 17, 6:04am

Sun Jan 17, 5:04am

Sun Jan 17, 4:04am

Sun Jan 17, 3:04am

Sun Jan 17, 2:04am

Sun Jan 17, 1:04am

Sun Jan 17, 12:04am

Sat Jan 16, 11:05pm

Sat Jan 16, 10:04pm

Sat Jan 16, 9:04pm

Sat Jan 16, 8:05pm

Sat Jan 16, 7:04pm

Sat Jan 16, 6:04pm

Sat Jan 16, 5:05pm

Sat Jan 16, 4:05pm

Sat Jan 16, 3:05pm

Sat Jan 16, 2:04pm

Sat Jan 16, 1:04pm

Sat Jan 16, 12:04pm

Sat Jan 16, 11:04am

Sat Jan 16, 10:05am

Sat Jan 16, 9:04am

Sat Jan 16, 8:04am

Sat Jan 16, 7:04am

Sat Jan 16, 6:04am

Sat Jan 16, 5:04am

Sat Jan 16, 4:04am

Sat Jan 16, 3:05am

Sat Jan 16, 2:04am

Sat Jan 16, 1:04am

Sat Jan 16, 12:05am

Fri Jan 15, 11:05pm

Fri Jan 15, 10:04pm

Fri Jan 15, 9:04pm

Fri Jan 15, 8:04pm

Fri Jan 15, 7:05pm

Fri Jan 15, 6:05pm

Fri Jan 15, 5:05pm

Fri Jan 15, 4:05pm

Fri Jan 15, 3:04pm

Fri Jan 15, 2:05pm

Fri Jan 15, 1:04pm

Fri Jan 15, 12:05pm

Fri Jan 15, 11:04am

Fri Jan 15, 10:04am

Fri Jan 15, 9:05am

Fri Jan 15, 8:04am

Fri Jan 15, 7:04am

Fri Jan 15, 6:04am

Fri Jan 15, 5:05am

Fri Jan 15, 4:04am

Fri Jan 15, 3:04am

Fri Jan 15, 2:04am

Fri Jan 15, 1:04am

Fri Jan 15, 12:05am

Thu Jan 14, 11:04pm

Thu Jan 14, 10:04pm

Thu Jan 14, 9:04pm

Thu Jan 14, 8:05pm

Thu Jan 14, 7:04pm

Thu Jan 14, 6:04pm

Thu Jan 14, 5:04pm

Thu Jan 14, 4:05pm

Thu Jan 14, 3:04pm

Thu Jan 14, 2:04pm

Thu Jan 14, 1:04pm

Thu Jan 14, 12:05pm

Thu Jan 14, 11:05am

Thu Jan 14, 10:04am

Thu Jan 14, 9:04am

Thu Jan 14, 8:04am

Thu Jan 14, 7:04am

Thu Jan 14, 6:04am

Thu Jan 14, 5:04am

Thu Jan 14, 4:04am

Thu Jan 14, 3:04am

Thu Jan 14, 2:04am

Thu Jan 14, 1:04am

Thu Jan 14, 12:04am

Wed Jan 13, 11:04pm

Wed Jan 13, 10:04pm

Wed Jan 13, 9:04pm

Wed Jan 13, 8:05pm

Wed Jan 13, 7:04pm

Wed Jan 13, 6:04pm

Wed Jan 13, 5:04pm

Wed Jan 13, 4:04pm

Wed Jan 13, 3:05pm

Wed Jan 13, 2:04pm

Wed Jan 13, 1:04pm

Wed Jan 13, 12:04pm

Wed Jan 13, 11:04am

Wed Jan 13, 10:04am

Wed Jan 13, 9:05am

Wed Jan 13, 8:04am

Wed Jan 13, 7:04am

Wed Jan 13, 6:04am

Wed Jan 13, 5:04am

Wed Jan 13, 4:04am

Wed Jan 13, 3:04am

Wed Jan 13, 2:04am

Wed Jan 13, 1:04am

Wed Jan 13, 12:05am

Tue Jan 12, 11:04pm

Tue Jan 12, 10:04pm

Tue Jan 12, 9:04pm

Tue Jan 12, 8:05pm

Tue Jan 12, 7:04pm

Meta data:

ID: 2a2e1f47-8567-4119-96ad-3394f22b3d1c
Link: https://api.weather.gov/products/2a2e1f47-8567-4119-96ad-3394f22b3d1c